Wind_Speed
33 32 33 33 34 35 34 35 35 36 37 37 35 34 34 35 36 37 39 40 39 39 40 40 40 39 39 41 39 38 38 37 37 36 35 35 35 36 37 39 39 37 36
30 30 32 32 34 35 37 38 38 39 39 37 36 36 36 37 38 39 40 41 41 41 42 42 41 41 41 41 40 39 37 35 35 36 37 35 35 36 38 39 38 35 33
27 30 32 32 35 36 39 40 40 40 40 39 39 40 40 39 40 40 41 42 42 43 44 44 44 44 44 43 42 40 37 37 36 37 38 37 35 35 36 38 36 33 32
27 29 31 33 34 35 37 38 38 39 39 39 39 40 39 39 39 39 38 39 40 40 41 41 41 42 42 41 41 40 40 39 38 38 39 39 38 37 35 35 36 34 32
26 28 29 30 31 33 35 37 38 39 39 39 39 39 39 39 38 37 36 35 35 36 37 38 38 39 40 41 41 42 42 41 41 41 41 41 41 39 37 35 35 33 32
26 27 28 29 31 32 34 35 37 38 39 40 41 41 41 40 39 38 37 37 36 37 38 39 40 41 42 43 44 44 44 44 44 43 43 43 42 41 39 35 34 32 33
26 27 28 29 30 30 32 34 36 38 39 40 41 42 43 43 43 42 42 41 40 41 41 42 43 44 45 45 46 46 46 46 46 45 45 44 43 40 37 34 33 31 30
26 26 28 30 32 34 36 36 37 38 39 39 40 41 42 44 44 44 44 44 44 44 44 45 46 46 46 47 47 46 46 46 46 46 45 43 41 39 35 32 30 30 29
27 28 30 33 34 36 38 39 39 39 40 40 40 40 41 42 43 44 44 45 45 46 46 46 47 47 47 47 46 46 45 46 45 44 42 40 38 35 32 29 28 29 30
30 31 32 34 35 37 39 40 40 41 41 41 40 39 39 39 40 41 42 43 44 45 45 45 45 46 45 44 43 42 42 42 41 39 37 35 33 31 28 27 26 26 27
34 35 35 36 36 36 38 39 40 40 40 40 40 39 37 36 36 37 38 40 40 41 42 42 43 42 41 39 38 37 37 35 34 33 32 30 28 28 26 26 27 27 26
37 38 39 39 37 36 37 38 39 39 39 39 39 38 36 35 35 35 35 35 36 37 37 38 37 36 35 34 34 32 31 30 30 29 27 26 26 25 25 26 26 26 25
41 42 42 42 40 39 38 39 40 40 39 38 38 37 36 35 34 33 33 33 33 33 33 32 31 30 29 29 27 27 26 26 26 26 25 25 24 25 25 25 24 24 23
44 45 45 45 45 43 42 41 40 40 39 38 37 36 35 34 32 32 31 31 30 29 28 27 26 25 24 22 19 20 22 24 24 25 25 24 25 25 24 24 23 23 22
47 48 48 48 48 47 46 43 41 40 39 37 36 34 34 33 31 30 30 28 26 25 24 22 21 20 18 17 17 17 19 21 22 23 23 24 24 24 23 22 21 20 19
50 50 50 50 50 50 48 46 43 41 39 37 36 33 32 32 30 29 28 26 24 22 21 19 18 16 14 14 16 17 19 20 21 22 23 23 23 22 20 18 18 18 17
54 54 53 52 52 52 50 48 45 42 40 38 36 34 32 31 29 28 26 24 22 21 20 18 16 14 13 12 13 13 14 16 18 18 19 18 16 15 14 14 14 15 15
59 59 57 56 55 55 53 51 48 44 42 39 37 35 32 30 28 27 25 23 21 20 19 17 15 13 12 12 12 12 12 12 12 13 12 12 11 11 11 11 11 11 12
63 63 63 62 60 58 57 54 51 47 43 40 38 36 33 30 28 26 24 22 21 19 18 17 15 13 13 12 11 10 10 9 8 8 8 9 9 8 8 8 9 10 10
67 67 67 66 65 62 60 57 54 50 46 42 39 37 34 32 29 26 24 22 20 19 17 16 14 13 11 10 8 7 7 8 8 7 7 6 6 6 6 7 7 8 8
72 73 73 71 69 67 63 61 57 54 49 44 41 37 35 33 30 27 25 22 20 19 17 15 13 11 9 7 7 7 8 8 8 7 7 6 6 6 6 6 6 6 7
77 76 74 72 70 68 66 63 59 55 51 47 42 38 36 34 32 29 26 23 21 19 16 15 13 11 9 9 9 9 9 8 8 7 7 6 6 5 5 5 5 6 7
75 72 70 67 64 62 60 58 57 55 52 49 45 41 37 34 32 31 28 24 22 19 17 15 13 12 11 11 11 10 10 9 8 7 6 6 6 5 5 5 5 6 7
63 60 56 53 51 51 51 51 51 52 52 51 48 45 40 37 34 33 30 26 23 20 18 16 15 14 14 13 13 12 11 10 9 8 7 7 6 6 6 6 5 5 6
47 45 44 43 43 42 42 43 45 48 50 50 48 46 41 39 36 34 32 28 25 22 20 19 18 17 16 15 14 14 12 11 10 9 8 8 8 8 7 6 5 5 6
40 39 39 39 38 38 38 38 39 42 46 48 48 46 42 39 38 36 34 31 27 25 22 21 20 19 17 16 15 14 13 12 11 10 9 9 9 9 8 7 6 5 6
Wind_Direction
286 294 299 302 302 302 300 296 294 292 290 288 282 279 279 278 276 276 276 277 277 277 277 276 279 279 282 282 283 278 278 279 279 279 279 278 280 283 283 284 283 279 272
291 296 298 301 303 303 301 299 297 295 292 288 286 284 280 277 275 274 275 276 276 277 278 280 281 281 284 283 284 283 281 281 282 281 280 279 280 282 282 284 283 277 269
291 296 298 299 300 300 299 297 296 296 294 290 287 285 283 280 277 275 274 275 275 275 277 278 280 281 283 285 285 286 286 285 285 284 283 283 282 280 281 283 280 274 266
290 294 297 298 298 297 296 296 297 298 297 295 291 289 287 285 283 281 279 278 277 277 278 279 280 281 283 283 283 284 285 285 285 284 284 285 284 282 281 281 278 273 264
290 295 297 298 299 297 296 296 296 296 295 294 293 291 288 287 285 284 283 282 281 281 281 281 282 283 283 284 284 284 284 284 283 282 283 283 283 283 282 281 277 271 262
293 296 298 299 300 299 298 297 297 296 294 292 290 289 288 286 285 284 284 283 283 283 284 284 285 285 285 285 284 284 283 282 281 280 280 280 281 281 281 279 275 270 264
300 302 302 305 308 310 310 308 305 302 298 294 291 288 286 284 283 282 282 282 282 283 284 285 285 285 285 285 284 283 282 280 279 278 278 277 278 278 278 277 274 268 263
310 312 315 320 322 322 321 319 316 313 309 304 298 292 288 285 283 281 281 281 282 283 284 285 285 285 284 284 283 281 280 278 277 276 275 274 274 274 274 274 271 264 259
320 322 323 324 324 323 322 322 321 320 316 312 308 301 295 290 286 283 282 282 282 283 284 285 285 284 284 283 281 279 277 275 274 272 271 270 270 269 268 269 268 262 257
321 321 320 320 320 320 319 320 320 320 320 317 313 309 303 297 292 288 285 284 284 285 285 285 285 284 282 281 279 277 275 273 270 266 264 265 263 262 261 259 260 259 257
314 314 314 314 314 314 314 316 317 319 319 318 316 312 308 303 298 294 290 288 287 287 286 286 285 284 281 279 277 274 271 266 263 262 259 258 256 256 253 253 255 256 255
309 308 308 308 309 308 310 312 314 315 317 318 316 314 310 306 302 298 295 292 290 289 289 289 287 285 281 278 275 270 264 258 255 251 248 249 250 250 251 252 256 258 258
304 303 303 304 306 306 307 309 310 313 314 316 316 314 311 307 303 301 299 296 295 294 293 291 289 287 282 277 271 263 255 249 244 241 241 241 244 248 250 253 259 260 258
299 300 301 302 304 305 306 306 307 309 311 313 314 313 311 307 303 301 301 299 298 297 296 294 293 289 281 272 264 253 244 240 237 238 238 241 247 249 250 254 257 257 256
298 299 299 300 301 302 303 303 303 305 307 309 310 311 311 307 303 301 300 299 298 298 298 298 297 292 279 265 257 250 241 238 236 236 238 243 246 248 250 252 252 251 251
293 294 295 295 296 297 298 299 300 301 303 305 306 306 307 306 301 300 299 298 298 298 298 298 300 299 285 267 258 253 245 242 240 239 243 244 243 245 244 245 246 248 252
292 292 292 292 293 294 294 295 296 297 298 300 301 301 302 302 298 296 296 294 294 295 298 299 299 300 293 275 256 249 245 241 237 236 236 237 237 237 240 245 251 257 262
292 293 292 291 291 291 291 291 292 292 293 293 294 295 296 295 293 290 290 289 289 290 292 296 295 294 290 278 267 256 246 235 232 231 230 232 235 240 244 249 254 260 265
291 291 290 290 289 288 288 287 287 287 287 287 287 287 288 287 285 282 282 282 282 284 285 288 289 287 284 275 264 254 240 232 225 222 223 227 231 237 239 242 250 258 265
289 288 288 287 286 285 284 282 281 281 280 279 279 281 280 277 276 273 273 273 273 276 278 279 281 281 277 267 256 237 220 211 205 202 202 205 212 220 228 235 245 258 269
290 289 288 288 286 284 281 278 276 274 272 270 269 272 271 268 266 263 262 263 264 265 267 268 268 266 257 243 222 208 201 195 192 193 197 201 208 218 230 242 255 269 282
292 291 290 288 287 284 280 276 271 267 264 261 259 261 262 260 257 253 252 254 254 254 254 255 254 248 232 216 204 200 195 187 184 187 192 200 211 226 241 252 266 281 295
294 294 293 291 289 285 280 273 267 261 256 252 250 250 251 251 249 245 243 243 243 242 241 240 238 230 217 208 202 200 197 194 195 196 202 214 226 238 248 258 272 289 304
297 297 295 293 291 286 280 273 263 255 248 244 243 243 242 242 241 237 235 234 233 231 230 228 225 220 214 209 205 205 205 208 209 214 221 231 240 246 250 260 273 291 310
297 297 298 297 296 293 284 275 264 252 244 239 237 235 234 233 232 231 228 226 224 222 221 220 217 214 213 211 210 210 212 216 220 228 237 242 246 249 251 258 271 295 320
300 299 299 299 298 295 289 281 267 252 242 235 232 231 230 227 226 224 222 218 217 216 215 215 214 213 212 213 214 216 220 224 230 238 244 247 247 247 247 254 269 293 319
Height
5888 5886 5884 5881 5877 5874 5871 5867 5863 5860 5858 5856 5854 5852 5851 5851 5850 5849 5847 5845 5844 5841 5839 5837 5835 5833 5832 5832 5831 5829 5829 5829 5828 5828 5828 5829 5828 5826 5825 5822 5820 5819 5819
5884 5882 5879 5876 5872 5868 5864 5860 5857 5853 5850 5848 5844 5844 5843 5842 5841 5839 5837 5835 5833 5831 5829 5826 5825 5823 5822 5822 5820 5819 5819 5819 5818 5817 5817 5818 5819 5817 5815 5812 5810 5809 5810
5878 5876 5873 5870 5867 5863 5858 5853 5849 5845 5841 5839 5836 5834 5833 5832 5831 5829 5827 5825 5823 5821 5819 5817 5815 5813 5812 5812 5811 5810 5810 5810 5809 5808 5807 5806 5807 5807 5806 5803 5800 5800 5800
5872 5870 5868 5865 5861 5856 5851 5846 5841 5837 5833 5829 5827 5824 5822 5821 5819 5818 5817 5815 5813 5811 5810 5808 5806 5805 5804 5803 5802 5801 5800 5800 5799 5798 5797 5796 5796 5796 5796 5794 5791 5791 5791
5866 5864 5862 5859 5854 5849 5844 5839 5834 5829 5825 5822 5818 5815 5813 5811 5809 5807 5806 5805 5803 5801 5800 5798 5797 5795 5794 5793 5792 5791 5790 5789 5789 5789 5788 5786 5786 5785 5785 5785 5783 5782 5783
5859 5857 5855 5851 5847 5841 5836 5831 5826 5822 5817 5813 5810 5806 5803 5801 5799 5797 5796 5795 5794 5792 5790 5788 5787 5785 5784 5782 5781 5780 5779 5779 5778 5778 5777 5776 5776 5775 5775 5775 5774 5773 5774
5852 5849 5845 5841 5837 5832 5827 5822 5817 5813 5808 5804 5800 5796 5793 5791 5789 5787 5785 5784 5783 5782 5780 5778 5776 5774 5772 5770 5769 5768 5767 5767 5766 5766 5766 5766 5765 5765 5765 5765 5765 5765 5766
5842 5839 5835 5831 5826 5822 5817 5813 5808 5803 5799 5794 5789 5785 5782 5779 5777 5775 5773 5772 5771 5770 5768 5766 5764 5762 5760 5758 5756 5755 5754 5754 5753 5753 5754 5754 5755 5755 5756 5756 5756 5757 5758
5833 5830 5827 5823 5819 5815 5810 5805 5800 5795 5790 5784 5779 5775 5771 5767 5765 5762 5761 5760 5758 5757 5756 5754 5751 5749 5747 5745 5743 5742 5741 5741 5741 5741 5742 5743 5744 5745 5746 5747 5748 5750 5751
5828 5825 5822 5818 5814 5809 5804 5798 5793 5788 5782 5776 5770 5765 5760 5756 5753 5751 5749 5747 5746 5744 5742 5740 5738 5736 5734 5732 5730 5729 5728 5728 5728 5729 5730 5732 5734 5737 5738 5740 5741 5742 5743
5822 5819 5815 5812 5808 5803 5797 5792 5786 5781 5775 5769 5762 5757 5752 5747 5744 5741 5738 5736 5734 5732 5730 5727 5725 5722 5721 5719 5718 5717 5717 5717 5718 5719 5721 5723 5726 5728 5730 5732 5734 5735 5736
5815 5811 5807 5804 5800 5795 5790 5785 5779 5773 5768 5762 5755 5750 5744 5739 5735 5732 5729 5726 5723 5721 5718 5716 5713 5710 5709 5707 5707 5706 5706 5707 5708 5711 5713 5715 5718 5721 5723 5725 5727 5729 5730
5806 5802 5798 5794 5790 5786 5781 5776 5771 5765 5760 5754 5748 5743 5738 5733 5728 5724 5721 5718 5715 5712 5709 5706 5703 5701 5699 5697 5696 5696 5697 5699 5701 5703 5706 5708 5711 5714 5716 5719 5721 5723 5724
5797 5792 5787 5783 5779 5775 5771 5767 5762 5757 5752 5747 5741 5736 5731 5726 5722 5718 5714 5711 5707 5704 5701 5698 5696 5693 5691 5690 5689 5690 5691 5692 5694 5697 5700 5702 5705 5707 5709 5712 5715 5716 5718
5787 5782 5776 5772 5768 5764 5760 5757 5753 5748 5743 5739 5734 5729 5724 5719 5715 5712 5708 5705 5702 5699 5696 5693 5690 5688 5686 5685 5685 5685 5686 5687 5689 5692 5694 5697 5699 5701 5704 5706 5708 5710 5712
5776 5771 5766 5761 5756 5752 5748 5745 5742 5738 5734 5730 5726 5721 5717 5713 5709 5706 5703 5700 5697 5694 5692 5689 5686 5684 5682 5681 5681 5681 5682 5683 5685 5687 5690 5692 5694 5696 5698 5700 5703 5705 5707
5763 5758 5753 5748 5744 5739 5735 5732 5730 5727 5724 5720 5717 5713 5710 5706 5702 5700 5697 5694 5692 5690 5688 5685 5683 5681 5679 5679 5678 5679 5679 5680 5682 5684 5686 5688 5690 5692 5694 5696 5698 5700 5702
5746 5741 5737 5733 5729 5725 5721 5719 5716 5715 5712 5709 5707 5704 5701 5698 5695 5693 5691 5689 5687 5686 5684 5683 5681 5679 5678 5677 5677 5677 5677 5678 5679 5681 5683 5685 5687 5688 5690 5693 5695 5696 5698
5729 5724 5719 5715 5712 5708 5705 5703 5702 5701 5699 5698 5696 5694 5692 5690 5688 5686 5685 5683 5682 5681 5680 5679 5678 5677 5676 5675 5675 5675 5675 5676 5677 5679 5681 5683 5684 5686 5688 5690 5692 5693 5694
5711 5706 5701 5696 5692 5689 5687 5685 5685 5685 5685 5684 5683 5683 5682 5681 5679 5678 5678 5677 5676 5676 5675 5675 5674 5674 5673 5673 5673 5673 5674 5675 5676 5678 5679 5681 5683 5684 5686 5687 5688 5689 5690
5690 5684 5678 5674 5670 5666 5665 5664 5665 5666 5667 5669 5669 5670 5671 5670 5670 5670 5670 5670 5670 5670 5670 5671 5671 5671 5671 5671 5672 5672 5673 5674 5675 5677 5678 5680 5681 5683 5684 5685 5685 5686 5686
5666 5659 5653 5649 5644 5639 5638 5639 5641 5643 5647 5650 5653 5656 5658 5659 5659 5660 5662 5663 5664 5664 5665 5666 5667 5668 5669 5670 5670 5671 5672 5673 5675 5676 5677 5678 5679 5680 5681 5682 5682 5683 5683
5641 5634 5628 5623 5618 5613 5611 5611 5615 5619 5624 5630 5635 5639 5643 5646 5648 5650 5653 5655 5657 5658 5660 5661 5663 5665 5666 5667 5668 5669 5670 5672 5673 5674 5675 5676 5677 5678 5679 5679 5679 5679 5679
5618 5611 5605 5600 5596 5591 5587 5586 5589 5594 5600 5608 5615 5621 5626 5631 5635 5639 5643 5646 5649 5652 5654 5656 5659 5661 5663 5665 5666 5667 5668 5670 5671 5672 5673 5674 5675 5675 5676 5676 5677 5676 5676
5601 5594 5588 5583 5579 5574 5570 5567 5568 5572 5579 5587 5596 5604 5610 5616 5622 5628 5633 5638 5642 5645 5648 5650 5653 5656 5659 5661 5663 5665 5666 5667 5669 5670 5670 5671 5672 5673 5673 5673 5674 5673 5673
5587 5581 5576 5570 5566 5561 5557 5553 5552 5554 5560 5568 5577 5586 5594 5602 5609 5616 5623 5628 5633 5637 5641 5644 5648 5651 5654 5657 5660 5662 5663 5664 5666 5667 5667 5668 5668 5669 5670 5670 5670 5670 5670